Weather History for Hanford, WA

Change the Weather History Date:

Thursday, October 6, 2011

  Actual Average Record
Temperature  
Mean Temperature 56 °F -  
Max Temperature 64 °F 69 °F 87 °F (2003)
Min Temperature 48 °F 43 °F 38 °F (2001)
Degree Days  
Heating Degree Days 9    
Growing Degree Days 6 (Base 50)    
Moisture  
Dew Point 45 °F    
Average Humidity 70    
Maximum Humidity 88    
Minimum Humidity 48    
Precipitation  
Precipitation 0.06 in - - ()
Sea Level Pressure  
Sea Level Pressure 29.76 in    
Wind  
Wind Speed 11 mph (WNW)    
Max Wind Speed 26 mph    
Max Gust Speed 40 mph    
Visibility 15 miles    
Events Rain    
Averages and records for this station are not official NWS values.
T = Trace of Precipitation, MM = Missing Value Source: NWS Daily Summary

Daily Weather History Graph

Daily Weather History Graph

Search for Another Location

Airport:

Trip Planner

Search our weather history database for the weather conditions in past years. The results will help you decide how hot, cold, wet, or windy it might be!

Date:

Astronomy

Oct. 06, 2011 Rise Set
Actual Time 7:03 AM PDT 6:28 PM PDT
Civil Twilight 6:33 AM PDT 6:58 PM PDT
Nautical Twilight 5:58 AM PDT 7:33 PM PDT
Astronomical Twilight 5:22 AM PDT 8:09 PM PDT
Moon 3:59 PM PDT (10/6) 1:39 AM PDT (10/6)
Length of Visible Light 12h 25m
Length of Day
11h 25m
Waxing Gibbous, 76% of the Moon is Illuminated
Oct 6
Waxing Gibbous
Oct 11
Full
Oct 19
Last Quarter
Oct 26
New
Nov 2
First Quarter

Hourly Weather History & Observations

Time (PDT) Temp. Dew Point Humidity Pressure Visibility Wind Dir Wind Speed Gust Speed Precip Events Conditions
12:50 AM 49.8 °F 46.4 °F 88% 29.65 in 15.0 mi West 9.2 mph - N/A Rain Light Rain
1:50 AM 49.6 °F 46.2 °F 88% 29.67 in 15.0 mi West 9.2 mph - N/A Rain Light Rain
2:50 AM 49.5 °F 45.9 °F 87% 29.69 in 15.0 mi West 9.2 mph - N/A Rain Light Rain
3:50 AM 48.9 °F 45.5 °F 88% 29.69 in 15.0 mi WNW 13.8 mph - N/A Rain Light Rain
4:50 AM 49.5 °F 45.9 °F 87% 29.68 in 15.0 mi SW 6.9 mph - N/A Rain Light Rain
5:50 AM 49.8 °F 45.9 °F 86% 29.69 in 15.0 mi WSW 9.2 mph - N/A   Overcast
6:50 AM 50.0 °F 45.1 °F 83% 29.70 in 15.0 mi West 8.1 mph - N/A Rain Light Rain
7:50 AM 50.2 °F 46.4 °F 87% 29.72 in 15.0 mi SW 6.9 mph - N/A   Overcast
8:50 AM 50.5 °F 46.2 °F 85% 29.73 in 15.0 mi West 5.8 mph - N/A   Overcast
9:50 AM 53.1 °F 45.9 °F 77% 29.75 in 15.0 mi NW 2.3 mph - N/A   Overcast
10:50 AM 54.9 °F 46.6 °F 74% 29.77 in 15.0 mi NW 9.2 mph - N/A   Overcast
11:50 AM 56.7 °F 45.9 °F 67% 29.78 in 15.0 mi NW 10.4 mph - N/A   Overcast
12:50 PM 59.9 °F 45.3 °F 59% 29.80 in 15.0 mi West 11.5 mph - N/A   Overcast
1:50 PM 61.9 °F 44.4 °F 53% 29.80 in 15.0 mi WNW 17.3 mph - N/A   Overcast
2:50 PM 63.3 °F 44.4 °F 50% 29.81 in 15.0 mi NW 15.0 mph - N/A   Overcast
3:50 PM 63.1 °F 45.0 °F 51% 29.81 in 15.0 mi WNW 11.5 mph - N/A   Overcast
4:50 PM 64.8 °F 44.8 °F 48% 29.81 in 15.0 mi NW 11.5 mph - N/A   Mostly Cloudy
5:50 PM 61.2 °F 43.3 °F 52% 29.82 in 15.0 mi WNW 11.5 mph - N/A   Mostly Cloudy
6:50 PM 59.5 °F 42.6 °F 54% 29.84 in 15.0 mi WNW 18.4 mph 28.8 mph N/A   Overcast
10:50 PM 56.5 °F 41.2 °F 57% 29.87 in 15.0 mi WNW 26.5 mph 33.4 mph N/A   Overcast
11:50 PM 56.3 °F 41.0 °F 57% 29.87 in 15.0 mi WNW 24.2 mph 40.3 mph N/A   Mostly Cloudy